fevte.com alexa rank chart, fevte.com alexa rank daily changes

fevte.com alexa rank chart, fevte.com alexa rank daily changes

fevte.com
Actual rank:
30 864

RANK HISTORY

Date Rank Diff
2017/11/20 30 864 -61
2017/11/19 30 925 -311
2017/11/18 31 236 -417
2017/11/17 31 653 -736
2017/11/16 32 389 +247
2017/11/15 32 142 -132
2017/11/14 32 274 -209
2017/11/13 32 483 +305
2017/11/12 32 178 +340
2017/11/11 31 838 +699
2017/11/10 31 139 -899
2017/11/09 32 038 -275
2017/11/08 32 313 +871
2017/11/07 31 442 +80
2017/11/06 31 362 -81
2017/11/05 31 443 +397
2017/11/04 31 046 +392
2017/11/03 30 654 -274
2017/11/02 30 928 -1 210
2017/11/01 32 138 +136
2017/10/31 32 002 +137
2017/10/30 31 865 -632
2017/10/29 32 497 +197
2017/10/28 32 300 -652
2017/10/27 32 952 -918
2017/10/26 33 870 -703
2017/10/25 34 573 -890
2017/10/24 35 463 -582
2017/10/23 36 045 +105
2017/10/22 35 940 +111
2017/10/21 35 829 +241
2017/10/20 35 588 +322
2017/10/19 35 266 +383
2017/10/18 34 883 -212
2017/10/17 35 095 +54
2017/10/16 35 041 +1 495
2017/10/14 33 546 +2 684
2017/10/13 30 862 +744
2017/10/12 30 118 +130
2017/10/11 29 988 +254
2017/10/10 29 734 +300
2017/10/09 29 434 -288
2017/10/08 29 722 -793
2017/10/07 30 515 +194
2017/10/06 30 321 +69
2017/10/05 30 252 -82
2017/10/04 30 334 -326
2017/10/03 30 660 -81
2017/10/02 30 741 +321
2017/10/01 30 420 +568
2017/09/30 29 852 -13
2017/09/29 29 865 +491
2017/09/28 29 374 +648
2017/09/27 28 726 +489
2017/09/26 28 237 -82
2017/09/25 28 319 +21
2017/09/24 28 298 -76
2017/09/23 28 374 -622
2017/09/22 28 996

WIDGET FOR YOUR SITE

DOMAINS WITH THE NEAREST RANK

Domain Rank
kviconline.gov.in 30 859
humankinetics.com 30 860
mds.gov.br 30 861
subsunacs.net 30 862
crazydomains.com.au 30 863
fevte.com 30 864
reviews.com 30 865
vtema.ru 30 866
99lb.net 30 867
funkyimg.com 30 868
littlealchemy2.com 30 869

DOMAINS WITH THE NEAREST RANK BY TLD .com

Domain Rank
paleohacks.com 30 847
iphantom.com 30 851
merahputih.com 30 852
awfulannouncing.com 30 858
humankinetics.com 30 860
fevte.com 30 864
reviews.com 30 865
funkyimg.com 30 868
littlealchemy2.com 30 869
workflowmax.com 30 871
rafflecopter.com 30 872